Theta_e
314 315 314 312 309 307 306 309 308 306 305 307 310 311 312 312 311 311 310 309 310 311 312 312 319 332 334 334 334 335 335 336 336 336 334 335 333 334 334 333 332 332 331 330
315 316 311 311 310 309 306 307 308 306 307 309 308 308 309 309 309 310 311 311 310 310 310 309 309 313 331 333 334 334 334 335 336 335 334 334 334 334 333 333 333 332 332 331
314 312 312 311 310 310 308 308 305 306 308 307 307 307 308 307 308 308 308 309 310 310 310 311 309 308 310 326 333 333 334 334 335 335 335 334 334 332 333 333 333 333 333 332
313 312 312 313 312 310 309 308 307 307 307 304 306 304 306 305 305 305 306 309 309 309 309 307 308 308 307 308 316 331 332 333 334 334 334 333 333 333 333 333 333 334 332 332
311 313 313 313 312 310 308 308 308 308 308 308 306 305 305 305 305 306 306 304 304 304 303 304 304 304 305 305 306 308 322 330 331 333 333 334 334 334 334 333 332 332 330 330
310 310 312 312 311 309 308 308 308 308 308 308 305 305 304 305 304 304 304 306 303 302 304 306 305 304 303 302 303 304 310 320 327 331 332 333 333 333 332 331 332 331 330 328
310 312 311 311 312 310 309 309 313 312 313 310 306 306 305 305 305 306 306 305 306 306 306 305 305 304 304 306 307 309 312 315 322 326 328 329 330 331 331 331 330 328 326 322
310 312 311 311 311 312 309 309 311 310 312 307 306 307 307 306 307 306 305 306 305 303 302 300 300 300 299 300 302 303 304 305 310 316 317 320 323 324 322 319 318 315 311 309
309 309 310 311 311 311 311 312 308 309 302 310 308 307 307 308 307 306 307 305 302 300 298 297 296 295 295 295 295 297 297 297 298 299 303 305 307 308 308 308 307 304 303 304
310 310 309 310 311 311 311 310 311 312 314 311 308 309 308 310 309 307 306 303 301 299 297 295 293 292 291 291 291 291 291 291 292 293 294 294 295 296 297 299 298 299 299 301
308 310 309 310 311 311 312 313 311 310 311 309 307 308 306 310 308 308 303 302 300 297 295 293 291 290 289 289 289 289 289 289 289 289 289 290 290 291 292 292 292 293 296 297
307 309 310 310 308 309 310 311 313 312 312 310 309 308 306 307 306 306 301 300 296 294 292 291 289 288 288 287 287 286 286 286 286 286 286 286 286 286 287 287 287 289 290 291
307 307 307 307 309 309 313 312 313 314 312 313 311 309 304 304 305 303 302 298 295 292 291 289 288 287 287 286 285 285 284 284 284 285 284 284 284 284 284 284 285 285 286 287
305 306 305 305 305 309 310 311 312 313 317 313 311 309 305 304 305 302 299 296 294 292 290 289 288 286 284 284 283 283 283 283 283 283 283 283 282 282 282 283 283 284 284 285
303 306 305 305 305 306 307 309 312 313 313 315 313 310 307 304 304 302 299 295 292 291 289 288 287 285 284 283 282 282 282 281 282 282 282 282 281 281 282 282 282 282 283 283
302 304 302 302 304 304 306 305 306 310 309 313 310 310 306 303 302 298 297 295 294 292 289 287 286 284 283 282 281 281 281 281 281 281 281 281 281 281 281 281 281 281 281 281
301 302 303 302 302 304 303 304 305 304 306 308 309 307 307 305 305 300 297 295 294 291 288 286 284 282 281 280 280 279 279 279 279 279 279 279 279 279 279 279 279 280 280 280
297 299 299 302 301 301 300 296 298 303 303 304 302 303 307 306 302 298 296 294 291 288 286 283 281 280 279 278 278 278 278 278 278 277 276 276 277 276 277 277 277 277 278 279
297 299 297 301 301 299 299 296 298 301 301 302 302 300 297 292 292 291 288 290 289 286 283 281 280 278 277 277 277 276 276 276 275 275 274 274 275 274 275 275 275 275 276 276
297 297 300 296 300 299 297 295 295 297 300 296 300 300 295 293 300 300 286 284 282 281 280 278 277 276 276 276 275 275 274 274 273 272 272 272 273 273 273 273 273 273 274 274
296 296 298 297 299 299 296 293 293 299 298 293 295 297 295 296 294 286 283 282 281 279 278 276 275 275 274 274 274 273 272 271 270 270 270 270 271 271 271 271 271 272 272 273
295 296 296 295 296 296 292 293 297 295 290 291 292 292 293 288 284 283 282 280 278 277 276 275 274 272 271 272 272 271 270 269 270 270 269 269 270 270 270 270 270 271 271 272
298 297 298 296 296 294 291 292 290 288 291 289 290 290 291 286 284 282 281 280 278 276 275 273 272 271 269 270 270 270 268 268 269 269 268 268 269 269 269 269 270 270 270 271
292 289 297 294 297 294 293 290 287 287 289 287 286 288 287 288 284 281 279 278 276 274 273 271 270 270 268 268 269 269 268 268 268 268 268 268 268 268 268 269 269 269 269 270
292 290 294 293 292 290 290 287 292 286 283 282 281 284 286 285 282 280 278 276 274 272 271 271 270 269 268 268 267 267 267 267 267 267 267 267 267 267 267 267 267 268 268 269
289 293 293 294 293 295 295 287 283 284 282 282 282 279 279 281 282 278 277 275 273 271 270 269 269 268 267 266 266 266 266 266 266 267 267 266 266 266 266 266 266 266 267 267
Wind_Speed
11 9 13 15 15 9 2 7 13 4 2 5 16 14 18 15 10 10 7 9 11 15 15 12 14 17 19 21 22 23 23 23 22 22 20 19 19 19 19 19 18 17 17 17
5 16 14 8 11 12 9 5 6 3 1 5 7 11 15 13 12 16 17 14 12 12 10 12 13 14 20 22 23 23 24 23 26 23 22 16 16 18 17 17 20 23 22 20
16 3 13 13 10 14 15 17 9 3 1 1 7 13 14 10 8 10 12 14 15 15 14 12 10 12 14 20 23 24 24 24 25 23 19 16 11 10 14 19 19 21 21 21
14 11 9 14 18 15 17 9 10 4 2 8 2 7 5 4 8 10 12 13 14 13 12 11 13 12 12 16 16 20 22 23 23 22 21 22 22 19 20 16 15 14 18 18
6 10 10 10 8 14 10 9 12 12 12 9 15 6 6 2 8 11 2 0 2 4 7 8 9 10 11 11 12 14 17 18 20 22 23 23 21 19 15 13 11 11 10 12
16 1 10 15 6 15 10 9 6 3 5 8 16 11 8 8 4 2 1 6 7 7 5 6 8 9 8 4 6 10 11 13 15 18 20 20 19 18 12 10 9 9 7 7
13 13 4 4 12 9 12 14 5 6 6 9 2 10 14 3 4 7 6 4 7 8 9 10 11 13 13 13 8 6 8 8 8 12 14 14 15 14 11 9 7 6 7 6
14 9 17 11 11 8 15 17 6 8 7 6 5 9 2 1 3 2 4 6 8 10 9 10 12 14 15 15 14 13 14 14 11 12 11 9 10 11 10 8 8 8 6 3
11 14 7 13 8 15 14 12 3 4 1 2 6 4 4 3 4 4 5 7 8 9 9 11 14 16 17 18 18 17 18 18 17 16 16 16 15 14 13 10 10 9 8 7
1 6 9 17 11 17 13 14 9 5 6 7 6 4 5 9 6 5 6 6 7 8 10 10 14 16 16 17 18 20 20 21 19 19 19 18 17 16 15 14 14 13 11 10
6 2 4 8 15 20 12 8 9 7 4 6 7 4 2 7 6 8 7 7 8 8 9 9 12 15 16 17 18 19 20 20 21 20 19 20 19 18 17 16 14 13 11 11
9 3 5 14 2 4 21 18 16 9 9 6 2 3 3 6 6 8 8 8 8 8 8 8 11 13 15 17 18 19 19 20 19 18 19 19 18 18 17 16 15 13 13 12
7 4 5 3 4 4 5 9 10 7 2 12 9 4 6 6 7 7 10 9 8 8 8 7 10 12 14 15 16 17 17 17 16 17 17 18 17 17 17 16 15 14 13 13
2 4 5 10 4 2 4 10 13 10 5 9 14 8 10 10 9 8 8 8 8 7 7 7 8 11 12 13 14 14 15 14 14 15 16 17 16 15 15 14 14 14 13 13
2 2 4 2 2 1 1 5 11 17 19 6 3 11 16 14 12 9 8 7 7 7 7 7 7 8 9 10 11 11 12 12 12 13 15 15 13 13 13 13 13 12 12 12
3 6 4 2 3 1 3 8 9 6 1 10 4 3 5 9 8 10 10 9 8 8 8 7 8 8 8 8 9 9 10 11 11 12 13 11 11 11 11 11 11 10 10 10
3 4 2 3 4 1 5 9 14 9 7 9 6 7 13 12 8 9 9 10 9 9 8 7 7 8 7 7 7 8 8 8 10 10 10 10 9 10 10 9 9 10 9 8
4 2 2 1 1 3 1 4 5 12 9 10 2 6 16 9 8 8 8 14 13 12 11 9 8 8 7 6 6 6 7 8 9 9 10 9 9 9 8 8 8 8 7 7
1 2 2 2 4 5 4 5 6 7 5 12 12 9 6 7 6 3 5 6 10 11 11 11 10 9 8 7 6 7 7 7 7 8 7 7 7 8 8 8 7 7 6 7
2 3 1 3 3 6 4 1 3 4 5 5 9 12 10 9 6 4 12 11 12 13 13 14 12 10 8 7 7 7 7 7 6 5 5 5 6 6 7 6 6 6 6 6
4 3 8 5 5 7 7 2 2 6 2 3 3 7 13 7 1 7 12 11 14 14 13 12 10 9 7 7 7 8 7 6 5 5 5 5 5 6 6 5 5 5 5 5
7 8 4 4 6 11 5 5 7 0 2 1 2 4 8 6 8 11 11 12 15 15 15 12 11 8 6 5 6 6 5 5 5 5 5 5 5 5 5 6 6 6 5 6
4 4 3 7 5 1 4 2 1 2 2 3 2 3 7 9 8 12 11 12 15 16 15 12 11 10 7 7 7 8 7 7 7 7 7 6 6 6 5 5 5 4 4 5
4 3 3 1 6 9 10 5 6 7 4 3 2 4 6 5 9 10 10 11 14 15 14 13 13 11 9 9 9 9 9 9 9 9 9 8 7 6 5 4 3 3 3 3
1 7 5 5 7 5 10 10 7 8 4 4 2 3 6 6 8 9 9 11 15 15 14 15 15 13 12 11 10 10 10 10 9 8 8 6 5 4 2 2 2 1 0 1
7 8 6 7 7 5 4 2 2 8 8 8 7 4 4 7 7 9 8 13 15 15 14 13 13 13 14 13 12 12 11 11 9 7 6 5 4 3 2 1 1 1 3 3
Wind_Direction
195 212 215 213 216 235 267 216 242 190 137 218 243 249 256 252 244 253 253 250 246 243 253 249 235 224 217 214 211 210 210 208 203 202 198 204 208 215 218 219 222 221 224 226
179 229 233 232 213 221 223 213 231 268 122 233 263 257 264 257 254 243 246 246 248 248 239 240 232 222 219 217 215 214 213 209 208 207 206 212 216 225 226 227 224 227 227 227
216 173 215 206 207 216 229 231 221 296 293 256 296 266 244 251 248 245 246 247 249 244 249 247 228 224 227 224 220 217 216 213 210 210 206 201 201 214 214 223 229 229 226 227
229 200 174 213 225 210 226 214 216 189 307 255 314 278 244 265 273 248 242 236 243 251 261 267 262 251 231 234 229 224 220 216 213 207 205 203 212 216 225 223 225 220 222 223
192 181 187 206 216 207 236 171 204 225 246 282 237 262 233 298 267 260 272 247 307 300 273 282 290 286 274 253 238 230 224 219 214 208 210 213 222 229 229 221 210 208 214 215
227 193 208 220 185 197 150 135 105 121 216 251 242 224 230 228 244 292 305 2 6 360 14 24 20 19 14 322 236 221 212 217 214 212 214 218 221 225 220 223 206 199 197 198
216 216 166 176 190 185 183 171 156 194 199 243 60 213 250 214 302 294 306 23 44 38 35 32 32 36 40 43 55 101 138 113 153 186 198 214 221 217 219 211 193 175 160 175
209 207 208 180 204 179 199 192 190 203 208 224 148 229 175 324 63 54 65 73 61 54 50 46 43 47 50 54 63 78 86 86 105 122 124 136 160 160 149 146 148 143 127 110
214 224 190 187 184 174 193 222 227 108 61 210 194 243 238 146 107 98 88 78 66 64 61 59 57 54 54 58 61 71 80 80 79 85 96 97 102 106 107 108 109 101 100 102
273 213 196 203 212 210 201 186 199 217 204 230 201 237 214 184 162 134 109 100 90 80 72 68 63 60 58 59 64 68 72 74 75 79 81 84 84 88 91 93 89 89 89 92
171 237 182 180 205 205 203 198 225 220 224 240 238 202 114 169 162 147 135 118 107 89 77 72 71 68 68 66 65 67 68 69 68 72 77 81 80 80 83 81 78 78 85 84
201 179 256 214 80 258 227 211 198 207 202 233 345 183 133 138 133 138 140 131 110 93 82 73 69 69 66 64 62 62 64 67 67 72 74 72 75 76 75 71 69 70 73 75
162 198 245 261 221 176 206 222 208 229 337 211 211 182 157 144 141 143 144 135 120 109 98 85 75 67 64 64 64 62 62 65 66 69 72 71 68 68 68 67 64 66 66 68
139 199 232 243 283 61 218 217 211 232 234 214 217 209 184 180 174 168 152 142 135 127 117 104 88 79 71 64 62 64 64 64 67 72 72 70 66 68 68 68 66 66 66 68
26 317 201 176 89 360 263 326 228 214 226 243 232 219 190 185 182 177 157 149 148 142 134 121 108 97 89 82 76 70 67 64 66 71 72 70 68 68 69 67 65 65 65 66
146 188 201 259 154 39 278 263 274 273 68 234 175 177 319 141 129 162 178 178 182 173 157 140 126 115 100 89 82 77 71 68 69 70 68 67 68 67 66 66 67 67 65 63
161 167 205 172 347 323 269 220 228 232 187 164 201 214 169 189 201 186 192 199 196 179 170 160 141 127 112 98 94 84 77 75 74 75 70 64 64 64 61 62 65 63 61 64
135 104 26 73 127 234 186 177 223 239 251 218 202 155 194 197 175 162 189 191 185 175 167 165 156 135 119 107 95 92 85 82 76 71 63 59 59 61 59 60 60 63 63 64
7 134 116 184 215 314 259 191 178 194 252 218 212 193 159 140 144 171 158 174 163 160 155 159 157 142 132 129 126 112 98 91 82 72 67 63 62 63 60 55 48 44 51 60
158 19 297 158 211 221 271 22 177 169 265 163 185 185 167 156 204 180 157 145 138 142 150 150 148 143 136 135 136 132 120 112 99 86 79 79 76 77 72 65 58 52 52 47
166 205 222 214 238 276 251 252 294 178 247 144 175 168 163 190 346 119 139 139 144 148 150 149 148 150 150 150 148 135 127 111 114 112 106 99 96 90 90 92 88 83 86 84
180 179 194 182 223 255 153 117 202 313 7 62 157 167 170 122 131 146 151 152 155 154 157 160 155 152 153 151 153 140 135 147 141 133 127 118 115 109 106 110 101 101 97 93
224 205 187 206 216 325 232 263 150 239 182 204 208 171 164 151 173 166 171 167 167 165 163 164 160 155 158 166 168 163 171 163 159 151 142 135 130 128 121 115 110 90 79 64
227 168 232 230 213 234 242 233 225 200 208 175 230 163 184 187 165 170 166 169 168 167 166 165 163 165 167 173 179 186 173 170 169 164 155 148 147 135 132 128 117 108 90 58
213 162 201 251 273 289 256 234 238 195 193 172 188 198 204 189 189 178 176 177 176 173 173 178 179 179 182 180 179 177 177 174 174 170 161 156 148 146 136 137 151 139 2 19
184 206 205 245 190 212 236 319 168 176 193 198 182 195 221 209 192 178 181 182 177 176 174 178 184 184 186 186 186 183 178 177 179 173 169 164 159 155 144 100 4 296 208 293